Back to catalog

NSS 703

INTELSAT 703

AliveCommunicationsGEO
NORAD 23305·PAYLOAD·🇱🇺 Luxembourg

Launched Oct 6, 1994 from Cape Canaveral Space Force Station

Loading…

TLE

FreshSource: Space-Track

Epoch: Sep 14, 2026, 11:58 UTC

1 23305U 94064A   26257.49865723  .00000028  00000-0  00000-0 0  9992
2 23305  11.8814  36.0778 0006569 245.0012 141.0910  0.99300987116626

Track NSS 703 in real time with AllMySat

Download on the App Store